Preview of NWS' New Version of Forecast
This preview is not operational and should not be used for support decisions.
Latest weather observations around

Aspen-Pitkin County Airport (KASE)

Using English Units (Switch to International System of Units)
Date/ Time (MDT) Wind (mph) Vis. (mi) Weather Sky Cond. Temp (°F) Rel. Humidity Wind Chill (°F) Heat Index (°F) Pressure Precip. (in)
Air Dwpt 6 hour Altimeter (inHg) Sea level (inHg) 1 hr 3 hr 6 hr
Max Min
Sep 17 11:10 SE 14 10 Mostly Cloudy SCT070 BKN090 64 41     43%     30.19        
Sep 17 10:53 SE 6 10 Mostly Cloudy BKN075 BKN090 60 42     51%     30.21 29.89      
Sep 17 09:53 5 10 Cloudy BKN080 OVC100 60 43     53%     30.19        
Sep 17 08:53 E 6 10 Cloudy BKN065 OVC075 55 43     64%     30.21 29.9 0 0  
Sep 17 07:53 SW 3 10 Mostly Cloudy BKN085 BKN100 51 43     74%     30.19 29.89      
Sep 17 06:53 S 8 10 Partly Cloudy SCT100 51 43     74%     30.19 29.88 0    
Sep 17 05:53 Calm 10 Mostly Cloudy BKN080 BKN110 49 37     63%     30.17 29.84      
Sep 17 04:53 S 5 10 Mostly Cloudy BKN080 53 36     52%     30.16        
Sep 17 03:53 S 9 10 Partly Cloudy SCT085 50 36     58%     30.16 29.81      
Sep 17 02:53 S 6 10 Mostly Clear FEW085 48 35     61% 45   30.17 29.83      
Sep 17 01:53 SSW 9 10 Clear CLR 47 35     63% 43   30.19 29.86      
Sep 17 00:53 S 3 10 Clear CLR 47 35     63% 46   30.19 29.87      
Sep 16 23:53 Calm 10 Clear CLR 48 36     63%     30.19 29.88      
Sep 16 22:53 SSW 6 10 Clear CLR 53 37     54%     30.19 29.87      
Sep 16 21:53 S 8 10 Cloudy OVC110 57 39     51%     30.18 29.85      
Sep 16 20:53 S 7 10 Mostly Cloudy BKN100 57 39     51%     30.18 29.88      
Sep 16 19:53 S 7 10 Partly Cloudy SCT120 59 39     47%     30.17 29.86      
Sep 16 18:53 Calm 10 Clear CLR 62 39     43%     30.16 29.83      
Sep 16 17:53 NNE 6 10 Clear CLR 68 38     33%     30.16 29.79      
Sep 16 16:53 N 10 10 Mostly Clear FEW085 73 39     29%   71 30.15        
Sep 16 15:53 6 10 Partly Cloudy SCT100 71 38     30%   69 30.16 29.79      
Sep 16 14:53 3 10 Mostly Clear FEW065 72 39     30%   70 30.18 29.81      
Sep 16 13:53 3 10 Mostly Clear FEW060 69 40     35%     30.2 29.84      
Sep 16 12:53 N 6 10 Mostly Cloudy BKN080 67 41     39%     30.22 29.86      
Sep 16 11:53 Calm 10 Mostly Cloudy FEW060 BKN095 BKN110 64 43     46%     30.24 29.91 0   0
Sep 16 10:53 N 5 10 Cloudy OVC065 61 45     56%     30.26 29.93      
Sep 16 09:53 Calm 10 Mostly Cloudy BKN060 BKN085 59 45     60%     30.27 29.92      
Sep 16 08:53 Calm 10 Cloudy BKN065 OVC080 55 48     77%     30.27 29.95   0  
Sep 16 07:53 Calm 10 Cloudy BKN060 OVC075 53 48     83%     30.27 29.94 0    
Sep 16 06:53 Calm 10 Cloudy BKN065 OVC080 55 42     62%     30.25 29.91      
Sep 16 05:53 S 6 10 Cloudy SCT060 BKN080 OVC100 58 41     53%     30.23 29.86 0   0
Sep 16 04:53 S 7 10 Light Rain FEW055 BKN070 OVC085 57 38     49%     30.23 29.85 0    
Sep 16 03:53 WSW 3 10 Cloudy FEW055 BKN075 OVC090 55 35     47%     30.23 29.85      
Sep 16 02:53 Calm 10 Cloudy FEW075 OVC100 53 36     52%     30.24 29.87      
Sep 16 01:53 SSW 5 10 Partly Cloudy FEW100 SCT120 55 35     47%     30.25 29.86      
Sep 16 00:53 S 6 10 Cloudy OVC100 56 35     45%     30.25 29.86      
Sep 15 23:53 SSW 3 10 Mostly Cloudy BKN110 54 34     47%     30.25 29.88      
Sep 15 22:53 Calm 10 Mostly Clear FEW110 59 33     37%     30.25 29.89      
Sep 15 21:53 SE 8 10 Cloudy OVC095 64 32     30%       29.91      
Sep 15 20:53 S 5 10 Mostly Cloudy BKN120 60 33     36%     30.27 29.94      
Sep 15 19:53 S 5 10 Cloudy OVC100 62 32     32%     30.26        
Sep 15 18:53 Calm 10 Cloudy OVC110 65 30     27%     30.26        
Sep 15 17:53 Calm 10 Cloudy OVC110 70 24     18%     30.26 29.94      
Sep 15 17:30 NNE 3 10 Cloudy OVC110 71 23     16%   69 30.25        
Sep 15 16:53 N 9 10 Partly Cloudy SCT120 71 24     17%   69 30.25 29.93      
Sep 15 15:53 NNW 9 10 Clear CLR 73 24     16%   71 30.24 29.91      
Sep 15 14:53 NW 11 10 Clear CLR 75 23     14%   73          
Sep 15 13:53 NNW 11 10 Clear CLR 76 21     13%   74 30.28 29.91      
Sep 15 13:31 NNW 11 10 Clear CLR 75 21     13%   73 30.28        
Sep 15 13:30 NNW 10 10 Clear CLR 75 21     13%   73 30.28        
Sep 15 12:53 5 10 Clear CLR 75 20     13%   73 30.29 29.94      
Sep 15 11:53 N 7 10 Clear CLR 72 28     19%   70 30.32 29.97      
Sep 15 10:53 N 8 10 Clear CLR 66 26     22%     30.35 30.03      
Sep 15 09:53 N 5 10 Clear CLR 61 27     27%     30.37 30.06      
Sep 15 08:53 Calm 10 Clear CLR 56 25     30%     30.38 30.09      
Sep 15 07:53 SSE 3 10 Clear CLR 46 28     49% 45   30.38        
Sep 15 06:53 Calm 10 Clear CLR 43 26     51%     30.37        
Sep 15 05:53 SW 7 10 Clear CLR 44 25     47% 40   30.37 30.04      
Sep 15 04:53 S 5 10 Clear CLR 43 26     51% 40   30.37 30.04      
Sep 15 03:53 SSW 5 10 Clear CLR 44 27     51% 41   30.38 30.04      
Sep 15 02:53 SSW 5 10 Clear CLR 47 26     44% 45   30.38        
Sep 15 01:53 SSW 6 10 Clear CLR 49 25     39% 46   30.4 30.05      
Sep 15 00:53 SSW 5 10 Clear CLR 49 26     41% 47   30.39 30.04      
Sep 14 23:53 SSW 8 10 Clear CLR 51 25     36%     30.39 30.05      
Sep 14 22:53 SSW 10 10 Clear CLR 52 25     35%     30.39 30.06      
Sep 14 21:53 SSW 9 10 Clear CLR 53 26     35%     30.4 30.09      
Sep 14 20:53 SSW 9 10 Clear CLR 54 27     35%     30.39 30.11      
Sep 14 19:53 S 7 10 Clear CLR 61 26     26%     30.37 30.11      
Sep 14 18:53 WNW 6 10 Clear CLR 68 20     16%     30.35 30.08      
Sep 14 17:53 NNW 7 10 Clear CLR 75 20     13%   73 30.35 30.03      
Sep 14 17:21 NW 13 10 Clear CLR 76 21     13%   74 30.34        
Sep 14 16:53 NNW 10 10 Clear CLR 76 21     13%   74 30.35 30.03      
Sep 14 15:53 N 13 10 Clear CLR 77 23     13%   75 30.35        
Sep 14 14:53 N 11 10 Clear CLR 76 23     14%   74 30.37        
Sep 14 13:53 N 11 10 Clear CLR 75 23     14%   73 30.4        
Sep 14 12:53 N 8 10 Clear CLR 74 22     14%   72 30.43        
May 15 12:53 WNW 9 10 Mostly Clear FEW120 66        %     30.15 29.87      
May 14 23:53 SW 10 10 Clear CLR 42 17     36% 36     29.91      
May 13 21:53 SSW 8 10 Clear CLR 47 26     44% 43     29.8      
May 12 08:53   10 Clear CLR 62        %     29.97 29.59      
May 12 01:53 SE 3 10 Mostly Clear FEW120 56 21     25%     29.89 29.51      
May 11 20:53 SW 9 10 Partly Cloudy SCT110 64 19     18%     29.84        
May 11 14:53 SSW 6 10 Clear CLR 70 22     16%     29.81 29.46      
May 11 11:48 SW 16 10 Clear CLR 64        %     29.87        
Jun 11 17:53 WSW 9 10 Clear CLR 78        %     29.95 29.54      
Jun 11 13:53 7 10 Clear CLR 75        %     30 29.59      
Jun 11 04:53 SSW 8 10 Clear CLR 53 28     38%     29.97 29.56      
Notice The following observation data may not be complete
Jun 11 03:53 S 11 10 Clear CLR   25      %     29.96 29.54      
Jun 10 11:53   10 Clear CLR 76        %     29.99 29.6      
Jun 10 00:53 SSE 7 10 Clear CLR 60 28     29%     29.98 29.57      
Jun 09 22:53 SSW 8 10 Clear CLR 60 28     29%     30        
Jun 09 20:53 SSW 7 10 Clear CLR 63 30     29%     29.98 29.62      
Jun 08 02:53 SSW 7 10 Partly Cloudy SCT120 51 38     61%       29.95      
Jun 06 12:14 N 8 10 Thunderstorms CLR 75 35     23%   73          
Jun 06 05:53 S 5 10 Clear CLR 49 36     61% 47